Regional Weather Roundup
Issued by NWS Northern Indiana

Home | Current Version | Previous Version | Text Only | Print | Product List | Glossary Off
Versions: 1 2 3 4 5 6 7 8 9 10 11 12 13 14 15 16 17 18 19 20 21 22 23 24 25 26 27 28 29 30 31 32 33 34 35 36 37 38 39 40 41 42 43 44 45 46 47 48 49 50

000
ASUS43 KIWX 282300
RWRIWX

KIWX WEATHER ROUNDUP
NATIONAL WEATHER SERVICE NORTHERN INDIANA
700 PM EDT SAT MAR 28 2015

NOTE: "FAIR" INDICATES FEW OR NO CLOUDS BELOW 12,000 FEET WITH NO
SIGNIFICANT WEATHER AND/OR OBSTRUCTIONS TO VISIBILITY.

* THESE STATIONS ARE NOT UNDER NWS QUALITY CONTROL. THEY ALSO MAY NOT
  REPORT WEATHER SUCH AS PRECIPITATION OR FOG.

INZ001>027-290000-
NORTHERN INDIANA

CITY           SKY/WX    TMP DP  RH WIND       PRES   REMARKS
GARY*          SUNNY     32   5  32 NE7       30.32F WCI  26
SOUTH BEND     SUNNY     34  14  43 NW10      30.30R WCI  26
GOSHEN         SUNNY     35   8  32 SW7       30.28R WCI  29
WARSAW*        SUNNY     34   9  35 N3        30.29R
ANGOLA*        SUNNY     36   9  32 NW6       30.26R
FORT WAYNE     SUNNY     36   9  32 NW7       30.29S
PERU/GRISSOM   SUNNY     35  12  39 VRB5      30.29R WCI  31

$$
INZ028>050-290000-
CENTRAL INDIANA

CITY           SKY/WX    TMP DP  RH WIND       PRES   REMARKS
LAFAYETTE      SUNNY     37   6  27 CALM      30.30R
KOKOMO*          N/A     36  12  38 NW3       30.30R
MUNCIE*        SUNNY     34  12  40 CALM      30.29R
INDIANAPOLIS   SUNNY     38  10  31 NW5       30.27R

$$
MIZ043>046-050>051-056>058-064>065-071>073-077>080-290000-
SOUTHWEST LOWER MICHIGAN

CITY           SKY/WX    TMP DP  RH WIND       PRES   REMARKS
BATTLE CREEK   SUNNY     37   2  22 NW6       30.26S
BENTON HARBOR  SUNNY     26  11  52 VRB7      30.32R WCI  18
COLDWATER*     SUNNY     35   4  27 CALM      30.27R
HILLSDALE*     SUNNY     35   4  27 NW6       30.25R WCI  30
HOLLAND        SUNNY     29  10  45 W8        30.32R WCI  21
GRAND RAPIDS   SUNNY     34   9  35 W12       30.27S WCI  25
KALAMAZOO      SUNNY     37   1  22 NW6       30.27R
STURGIS*       SUNNY     36   5  27 CALM      30.26S
THREE RIVERS*  FAIR      37   5  26 W6        30.27S

$$
OHZ001>008-015>018-024>025-290000-
NORTHWEST OHIO

CITY           SKY/WX    TMP DP  RH WIND       PRES   REMARKS
DEFIANCE       SUNNY     36  11  35 N5        30.28S
FINDLAY        CLEAR     34  11  38 NW9       30.28R WCI  27
TOLEDO EXPRESS CLEAR     35   8  32 W9        30.27R WCI  28
TOLEDO METCALF CLEAR     35   9  33 W10       30.29R WCI  27
LIMA           CLEAR     33  13  43 N7        30.28R WCI  27

$$
AND FOR LAKE MICHIGAN COASTAL AND OPEN LAKE BUOY OBSERVATIONS

STATION/POSITION TEMP    WIND        PRES    VSBY  WAVE
                 AIR SEA DIR/SP/G                  HT/PER
                 (F)     (DEG/KT/KT) (MB)    (MI)  (FT/S)
CALUMET HARBOR    29      20/  5/  6 1025.1F
MICHIGAN CITY     28     340/  6/  6   N/A
BURNS HARBOR      27      30/  6/  7 1027.1S
SAINT JOSEPH      27     310/  6/  9 1027.1S

$$
&&



USA.gov is the U.S. government's official web portal to all federal, state and local government web resources and services.